STARLINK-32356, 60921

Orbit data source: Space-Track

STARLINK-32356, 60921 is a payload satellite owned by SpaceX/Seattle (US) in LEO that was launched on Sat, 31 Aug 2024 UTC via an FALCON 9 launch vehicle from the Air Force Eastern Test Range (AFETR). Payload-class satellites include a variety of spacecraft equipped with specific instruments for various scientific and technological missions. These include communications satellites like Starlink; space stations such as the ISS; scientific satellites like the Hubble; Earth observation satellites from companies like Planet Labs, Umbra, and HawkEye 360; GPS; miniature CubeSats for education and research; and military/defense satellites.

Loading next visibility...
Identifier
60921, 2024-154U
Orbit
LEO
Country
Flag of USUS
Related business
Manufacturer
SpaceX/Seattle
Mission
Operational Commercial Communications
Bus & Motor
STARLINK V2M, Unknown motor
Mass
730 kg wet, ~700 kg dry
Launch date (UTC)
2024-08-31 (2 years ago)
Launch vehicle
FALCON 9
Launch site
Air Force Eastern Test Range (AFETR)
Object type
Payload
Rocket body
Debris
Shape & HBR
Box + 2 Pan, 17.7 m
Radar Cross Section
33.884 m², Large (>1 m²)

Expand to show TLE details & history
Last TLE update: 12 hours ago

TLE from 12 hours ago
0 STARLINK-32356
1 60921U 24154U   26130.00245087 -.00000733  00000-0 -12637-4 0  9990
2 60921  53.1615 358.9483 0001201  98.5213 261.5924 15.30194811 95739
Epoch: 2026-05-10T00:03Z
TLE epoch observation values (Epoch: 2026-05-10T00:03:31.755Z)
Latitude
Longitude
130.2542°
Altitude
476.251 km
Speed
7.629 km/s
True Right ascension
23h 55m 47s
True Declination
0° 00' 00"
Sunlit
Object was in daylight at epoch
Visualization orbit readout
Latitude
Unknown
Longitude
Unknown
Altitude
Unknown
Speed
Unknown
Apparent Right ascension
Unknown
Apparent Declination
Unknown
Sunlit
N/A
Visualization observer readout
Local Sidereal Time
19:51:38
Azimuth
Unknown
Elevation
Unknown
Doppler factor
Unknown
Orbital elements
Apogee altitude
476.31 km
Perigee altitude
474.664 km
Semi-major axis
6,853.624 km
Eccentricity
0.00012
Inclination
53.1615°
RAAN
358.9483°
Arg. of periapsis
98.5213°
True anomaly
261.57879°
Mean anomaly
261.5924°
Eccentric anomaly
261.58559°
Mean motion
3.82528 °/min
Orbital period
94.11 mins
BSTAR
-0.000012637
Loading maneuver chart data...
Computing Atmospheric mass density...
Loading historical data...
Loading historical data...
Loading historical data...
Loading historical data...
Loading historical data...
Loading historical data...
Loading historical data...

Documentation

Showing up to 5 results
|